CW3817 Weather Reports


time (UTC)temp
C
wind
direction
speed
KPH
gust
KPH
rain 1hr
cm
rain 24hr
cm
rain mn
cm
humidity
%
barometer
mb
20260505112203 7 179 0.0 6.4 0.00 0.03 0.00 95 1002.5
20260505111203 6 180 3.2 6.4 0.00 0.03 0.00 98 1002.6
20260505102204 5 191 0.0 3.2 0.00 0.03 0.00 98 1002.7
20260505101204 4 191 0.0 1.6 0.00 0.03 0.00 98 1002.8
20260505100204 3 192 0.0 4.8 0.00 0.03 0.00 97 1002.7
20260505095204 3 192 1.6 4.8 0.00 0.03 0.00 97 1002.7
20260505094224 3 193 0.0 4.8 0.00 0.03 0.00 96 1002.7
20260505093204 3 193 0.0 0.0 0.00 0.03 0.00 96 1002.7
20260505092203 3 193 0.0 4.8 0.00 0.03 0.00 96 1002.8
20260505091204 3 193 0.0 1.6 0.00 0.03 0.00 96 1002.8
20260505090203 3 193 0.0 1.6 0.00 0.03 0.00 96 1003.0
20260505085203 3 193 0.0 1.6 0.00 0.03 0.00 96 1003.0
20260505084203 3 193 0.0 4.8 0.00 0.03 0.00 96 1003.0
20260505083203 3 194 0.0 1.6 0.00 0.03 0.00 96 1003.0
20260505082203 3 194 0.0 3.2 0.00 0.03 0.00 95 1003.0
20260505081203 3 193 0.0 3.2 0.00 0.03 0.00 95 1003.1
20260505080203 3 193 0.0 3.2 0.00 0.03 0.00 95 1002.9
20260505075203 3 194 0.0 0.0 0.00 0.03 0.00 96 1002.9
20260505074202 3 194 0.0 0.0 0.00 0.03 0.00 96 1003.0
20260505072205 3 194 0.0 0.0 0.00 0.03 0.00 96 1003.0
20260505071204 3 194 0.0 0.0 0.00 0.03 0.00 95 1003.1
20260505070205 3 194 0.0 8.0 0.00 0.03 0.00 93 1003.1
20260505065204 3 209 1.6 3.2 0.00 0.03 0.00 92 1003.0
20260505064204 3 210 0.0 0.0 0.00 0.03 0.00 92 1002.9
20260505063204 3 210 0.0 0.0 0.00 0.03 0.00 91 1003.0
20260505062246 3 210 0.0 0.0 0.00 0.03 0.00 91 1003.0
20260505061203 4 210 0.0 0.0 0.00 0.03 0.00 92 1002.9
20260505060204 4 210 0.0 0.0 0.00 0.03 0.00 93 1002.9
20260505055204 4 210 0.0 6.4 0.00 0.03 0.00 93 1002.7
20260505054203 4 226 4.8 6.4 0.00 0.03 0.00 93 1002.6
20260505053203 4 245 1.6 3.2 0.00 0.03 0.00 93 1002.6
20260505052203 4 245 0.0 0.0 0.00 0.03 0.00 93 1002.6
20260505050203 5 245 0.0 0.0 0.00 0.03 0.00 92 1002.6
20260505041202 5 245 0.0 0.0 0.00 0.03 0.00 93 1002.7
20260505035224 5 245 0.0 0.0 0.00 0.03 0.03 93 1002.8
20260505034224 5 245 0.0 0.0 0.00 0.03 0.03 94 1002.7
20260505033203 5 244 0.0 4.8 0.00 0.03 0.03 94 1002.7
20260505032203 5 245 0.0 3.2 0.00 0.03 0.03 94 1002.6
20260505031203 5 244 1.6 6.4 0.00 0.03 0.03 94 1002.7
20260505030202 4 245 0.0 6.4 0.00 0.03 0.03 94 1002.7
20260505025233 4 245 0.0 3.2 0.00 0.03 0.03 93 1002.7
20260505024204 4 245 0.0 4.8 0.00 0.03 0.03 92 1002.7
20260505023225 4 244 0.0 3.2 0.00 0.03 0.03 92 1002.7
20260505021204 4 244 0.0 4.8 0.00 0.03 0.03 91 1002.8
20260505020204 4 245 0.0 0.0 0.00 0.03 0.03 91 1002.8
20260505015203 4 245 0.0 0.0 0.00 0.03 0.03 89 1002.8
20260505014203 4 244 1.6 3.2 0.00 0.03 0.03 88 1002.6
20260505013204 4 244 0.0 4.8 0.00 0.03 0.03 87 1002.6
20260505012203 4 244 0.0 4.8 0.00 0.03 0.03 86 1002.3
20260505011204 5 245 0.0 0.0 0.00 0.03 0.03 84 1002.3
20260505010203 5 245 0.0 0.0 0.00 0.03 0.03 83 1002.3
20260505005203 5 245 0.0 0.0 0.00 0.03 0.03 82 1002.3
20260505004203 5 245 0.0 0.0 0.00 0.03 0.03 79 1002.2
20260505003203 6 245 0.0 3.2 0.00 0.03 0.03 78 1002.2
20260505002223 6 245 0.0 0.0 0.00 0.03 0.03 76 1001.7
20260505001203 7 245 0.0 3.2 0.00 0.03 0.03 74 1001.5
20260504235203 8 245 0.0 4.8 0.00 0.03 0.03 72 1001.3
20260504234203 8 245 0.0 8.0 0.00 0.05 0.03 72 1001.1
20260504233202 8 267 3.2 19.3 0.00 0.05 0.03 71 1001.1
20260504232203 8 274 6.4 17.7 0.00 0.05 0.03 70 1000.7
20260504231205 9 257 8.0 19.3 0.00 0.05 0.03 69 1000.8
20260504230206 9 231 1.6 20.9 0.00 0.05 0.03 69 1000.6
20260504225205 9 227 6.4 16.1 0.00 0.05 0.03 68 1000.6
20260504224205 9 263 4.8 14.5 0.00 0.05 0.03 68 1000.5
20260504223204 10 268 9.7 25.7 0.00 0.08 0.03 67 1000.5
20260504222205 10 248 8.0 35.4 0.00 0.08 0.03 66 1000.3
20260504221204 10 240 3.2 17.7 0.00 0.08 0.03 67 1000.3
20260504220225 10 231 3.2 25.7 0.00 0.08 0.03 68 1000.3
20260504215204 10 224 9.7 22.5 0.00 0.08 0.03 67 1000.3
20260504214225 10 234 4.8 17.7 0.00 0.08 0.03 69 1000.1
20260504213204 10 239 8.0 20.9 0.00 0.08 0.03 68 1000.1
20260504212204 10 268 12.9 22.5 0.00 0.08 0.03 69 1000.0
20260504211204 10 266 8.0 20.9 0.00 0.08 0.03 68 999.8
20260504210204 10 246 9.7 24.1 0.00 0.08 0.03 68 999.8
20260504205225 10 251 6.4 24.1 0.00 0.10 0.03 69 999.7
20260504204203 10 269 3.2 14.5 0.00 0.10 0.03 71 999.7
20260504203204 9 270 4.8 12.9 0.00 0.13 0.03 74 999.8
20260504202203 9 260 6.4 14.5 0.00 0.13 0.03 76 999.8
20260504201203 8 290 8.0 16.1 0.00 0.15 0.03 79 999.8
20260504200204 8 239 0.0 9.7 0.00 0.15 0.03 79 999.8
20260504195203 8 256 3.2 9.7 0.03 0.18 0.03 78 999.8
20260504194203 8 243 1.6 11.3 0.03 0.18 0.03 78 999.8
20260504193203 9 229 0.0 16.1 0.03 0.20 0.03 79 999.8
20260504192203 9 270 4.8 11.3 0.03 0.23 0.03 78 999.8
20260504191223 9 263 9.7 19.3 0.03 0.23 0.03 74 999.7
20260504185203 10 241 1.6 16.1 0.00 0.25 0.00 70 999.7
20260504184224 11 255 1.6 20.9 0.00 0.25 0.00 62 999.6
20260504183203 11 257 4.8 16.1 0.00 0.28 0.00 57 999.6
20260504182203 11 260 3.2 25.7 0.00 0.30 0.00 57 999.6
20260504181205 11 250 9.7 25.7 0.00 0.30 0.00 53 999.3
20260504180205 12 230 8.0 20.9 0.00 0.33 0.00 50 999.3
20260504175205 12 251 8.0 22.5 0.00 0.33 0.00 45 999.1
20260504174204 13 244 6.4 22.5 0.00 0.36 0.00 40 999.0
20260504173226 13 257 6.4 16.1 0.00 0.36 0.00 37 998.9
20260504172205 13 275 11.3 25.7 0.00 0.36 0.00 36 998.9
20260504171204 13 268 17.7 30.6 0.00 0.36 0.00 34 998.6
20260504170205 14 241 9.7 22.5 0.00 0.38 0.00 31 998.6
20260504160204 14 300 14.5 27.4 0.00 0.46 0.00 31 998.6
20260504150224 12 252 9.7 24.1 0.00 0.58 0.00 39 999.6
20260504141203 11 275 4.8 24.1 0.00 0.69 0.00 47 1000.2